#timestamp,LO_Frequency,Hit,Temp,Hum 
1478257215.4,286046940.2,N,0.0,0.0
1478257235.2,286046942.0,N,0.0,0.0
1478257255.0,286046940.9,N,0.0,0.0
1478257255.9,286046940.9,N,0.0,0.0
1478257275.8,286046941.2,N,0.0,0.0
1478257295.6,286046939.3,N,0.0,0.0
1478257315.5,286046939.5,N,0.0,0.0
1478257335.3,286046938.9,N,0.0,0.0
1478257355.1,286046942.0,N,0.0,0.0
1478257375.9,286046939.4,N,0.0,0.0
1478257395.7,286046940.4,N,0.0,0.0
1478257415.5,286046939.2,N,0.0,0.0
1478257435.4,286046939.5,N,0.0,0.0
1478257455.2,286046940.0,N,0.0,0.0
1478257475.0,286046940.0,N,0.0,0.0
1478257475.9,286046940.0,N,0.0,0.0
1478257495.8,286046940.4,N,0.0,0.0
1478257515.6,286046940.1,N,0.0,0.0
1478257535.4,286046939.8,N,0.0,0.0
1478257555.3,286046940.2,N,0.0,0.0
1478257575.1,286046941.6,N,0.0,0.0
1478257595.8,286046938.9,N,0.0,0.0
1478257615.7,286046941.6,N,0.0,0.0
1478257635.5,286046941.4,N,0.0,0.0
1478257655.4,286046938.9,N,0.0,0.0
1478257675.2,286046941.8,N,0.0,0.0
1478257695.0,286046939.1,N,0.0,0.0
1478257695.9,286046939.1,N,0.0,0.0
1478257715.8,286046941.8,N,0.0,0.0
1478257735.6,286046941.5,N,0.0,0.0
1478257755.4,286046939.6,N,0.0,0.0
1478257775.3,286046938.6,N,0.0,0.0
1478257795.1,286046937.6,N,0.0,0.0
1478257815.8,286046938.0,N,0.0,0.0
1478257835.7,286046938.4,N,0.0,0.0
1478257855.5,286046936.5,N,0.0,0.0
1478257875.3,286046934.4,N,0.0,0.0
1478257895.2,286046934.5,N,0.0,0.0
1478257915.0,286046934.3,N,0.0,0.0
1478257915.9,286046934.3,N,0.0,0.0
1478257935.8,286046934.6,N,0.0,0.0
1478257955.6,286046934.5,N,0.0,0.0
1478257975.4,286046936.3,N,0.0,0.0
1478257995.3,286046938.7,N,0.0,0.0
1478258015.1,286046936.4,N,0.0,0.0
1478258016.0,286046936.4,N,0.0,0.0
1478258035.8,286046936.6,N,0.0,0.0
1478258055.7,286046934.1,N,0.0,0.0
1478258075.5,286046936.9,N,0.0,0.0
1478258095.3,286046935.9,N,0.0,0.0
1478258115.2,286046937.1,N,0.0,0.0
1478258135.0,286046935.7,N,0.0,0.0
1478258135.9,286046935.7,N,0.0,0.0
1478258155.7,286046937.0,N,0.0,0.0
1478258175.6,286046937.1,N,0.0,0.0
1478258195.4,286046934.9,N,0.0,0.0
1478258215.2,286046936.3,N,0.0,0.0
1478258235.1,286046936.5,N,0.0,0.0
1478258236.0,286046936.5,N,0.0,0.0
1478258255.8,286046938.3,N,0.0,0.0
1478258275.7,286046940.4,N,0.0,0.0
1478258295.5,286046937.6,N,0.0,0.0
1478258315.3,286046938.6,N,0.0,0.0
1478258335.2,286046938.7,N,0.0,0.0
1478258355.9,286046936.2,N,0.0,0.0
1478258375.7,286046938.5,N,0.0,0.0
1478258395.6,286046936.5,N,0.0,0.0
1478258415.4,286046936.6,N,0.0,0.0
1478258435.2,286046937.0,N,0.0,0.0
1478258455.1,286046935.8,N,0.0,0.0
1478258456.0,286046935.8,N,0.0,0.0
1478258475.8,286046936.8,N,0.0,0.0
1478258495.7,286046937.2,N,0.0,0.0
1478258515.5,286046934.1,N,0.0,0.0
1478258535.3,286046934.1,N,0.0,0.0
1478258555.2,286046936.7,N,0.0,0.0
1478258575.9,286046934.1,N,0.0,0.0
1478258595.7,286046937.1,N,0.0,0.0
1478258615.6,286046937.0,N,0.0,0.0
1478258635.4,286046934.8,N,0.0,0.0
1478258655.2,286046934.8,N,0.0,0.0
1478258675.1,286046935.1,N,0.0,0.0
1478258676.0,286046935.1,N,0.0,0.0
1478258695.8,286046937.2,N,0.0,0.0
1478258715.6,286046938.1,N,0.0,0.0
1478258735.5,286046937.1,N,0.0,0.0
1478258755.3,286046940.0,N,0.0,0.0
1478258775.1,286046938.1,N,0.0,0.0
1478258795.9,286046936.4,N,0.0,0.0
1478258815.7,286046938.7,N,0.0,0.0
1478258835.6,286046934.6,N,0.0,0.0
1478258855.4,286046932.5,N,0.0,0.0
1478258875.2,286046936.5,N,0.0,0.0
1478258895.1,286046936.1,N,0.0,0.0
1478258896.0,286046936.1,N,0.0,0.0
1478258915.8,286046935.5,N,0.0,0.0
1478258935.6,286046932.5,N,0.0,0.0
1478258955.5,286046935.2,N,0.0,0.0
1478258975.3,286046934.5,N,0.0,0.0
1478258995.1,286046934.4,N,0.0,0.0
1478259015.9,286046936.7,N,0.0,0.0
1478259035.7,286046936.7,N,0.0,0.0
1478259055.5,286046937.2,N,0.0,0.0
1478259075.4,286046942.9,N,0.0,0.0
1478259095.2,286046936.5,N,0.0,0.0
1478259115.1,286046936.8,N,0.0,0.0
1478259116.0,286046936.8,N,0.0,0.0
1478259135.8,286046934.9,N,0.0,0.0
1478259155.6,286046937.1,N,0.0,0.0
1478259175.5,286046932.5,N,0.0,0.0
1478259195.3,286046935.5,N,0.0,0.0
1478259215.1,286046934.8,N,0.0,0.0
1478259235.9,286046932.5,N,0.0,0.0
1478259255.7,286046935.5,N,0.0,0.0
1478259275.5,286046935.4,N,0.0,0.0
1478259295.4,286046936.9,N,0.0,0.0
1478259315.2,286046938.2,N,0.0,0.0
1478259335.0,286046936.9,N,0.0,0.0
1478259335.9,286046936.9,N,0.0,0.0
1478259355.8,286046938.8,N,0.0,0.0
1478259375.6,286046936.5,N,0.0,0.0
1478259395.5,286046934.6,N,0.0,0.0
1478259415.3,286046934.1,N,0.0,0.0
1478259435.1,286046935.3,N,0.0,0.0
1478259455.9,286046934.8,N,0.0,0.0
1478259475.7,286046935.0,N,0.0,0.0
1478259495.5,286046932.9,N,0.0,0.0
1478259515.4,286046935.6,N,0.0,0.0
1478259535.2,286046933.3,N,0.0,0.0
1478259555.0,286046933.2,N,0.0,0.0
1478259555.9,286046933.2,N,0.0,0.0
1478259575.8,286046933.9,N,0.0,0.0
1478259595.6,286046927.0,N,0.0,0.0
1478259615.4,286046932.0,N,0.0,0.0
1478259635.3,286046930.8,N,0.0,0.0
1478259655.1,286046933.2,N,0.0,0.0
1478259675.9,286046931.6,N,0.0,0.0
1478259695.7,286046931.1,N,0.0,0.0
1478259715.5,286046933.3,N,0.0,0.0
1478259735.4,286046932.4,N,0.0,0.0
1478259755.2,286046933.4,N,0.0,0.0
1478259775.0,286046932.2,N,0.0,0.0
1478259775.9,286046932.2,N,0.0,0.0
1478259795.8,286046931.3,N,0.0,0.0
1478259815.6,286046931.5,N,0.0,0.0
1478259835.4,286046932.6,N,0.0,0.0
1478259855.3,286046931.9,N,0.0,0.0
1478259875.1,286046929.7,N,0.0,0.0
1478259895.8,286046934.0,N,0.0,0.0
1478259915.7,286046932.1,N,0.0,0.0
1478259935.5,286046931.8,N,0.0,0.0
1478259955.3,286046931.7,N,0.0,0.0
1478259975.2,286046929.3,N,0.0,0.0
1478259995.0,286046929.7,N,0.0,0.0
1478259995.9,286046929.7,N,0.0,0.0
1478260015.8,286046931.9,N,0.0,0.0
1478260035.6,286046930.9,N,0.0,0.0
1478260055.4,286046931.3,N,0.0,0.0
1478260075.3,286046931.8,N,0.0,0.0
1478260095.1,286046931.3,N,0.0,0.0
1478260096.0,286046931.3,N,0.0,0.0
1478260115.8,286046933.6,N,0.0,0.0
1478260135.7,286046931.2,N,0.0,0.0
1478260155.5,286046935.2,N,0.0,0.0
1478260175.3,286046933.7,N,0.0,0.0
1478260195.2,286046928.0,N,0.0,0.0
1478260215.0,286046930.5,N,0.0,0.0
1478260215.9,286046930.5,N,0.0,0.0
1478260235.8,286046931.5,N,0.0,0.0
1478260255.6,286046929.5,N,0.0,0.0
1478260275.4,286046932.1,N,0.0,0.0
1478260295.3,286046931.3,N,0.0,0.0
1478260315.1,286046929.3,N,0.0,0.0
1478260316.0,286046929.3,N,0.0,0.0
1478260335.8,286046931.9,N,0.0,0.0
1478260355.7,286046928.3,N,0.0,0.0
1478260375.5,286046929.2,N,0.0,0.0
1478260395.3,286046932.1,N,0.0,0.0
1478260415.2,286046929.9,N,0.0,0.0
1478260435.0,286046930.6,N,0.0,0.0
1478260435.9,286046930.6,N,0.0,0.0
1478260455.7,286046930.5,N,0.0,0.0
1478260475.6,286046929.4,N,0.0,0.0
1478260495.4,286046932.2,N,0.0,0.0
1478260515.3,286046929.7,N,0.0,0.0
1478260535.1,286046929.9,N,0.0,0.0
1478260536.0,286046929.9,N,0.0,0.0
1478260555.8,286046929.9,N,0.0,0.0
1478260575.7,286046931.9,N,0.0,0.0
1478260595.5,286046929.4,N,0.0,0.0
1478260615.3,286046929.4,N,0.0,0.0
1478260635.2,286046932.2,N,0.0,0.0
1478260655.9,286046931.4,N,0.0,0.0
1478260675.7,286046929.2,N,0.0,0.0
1478260695.6,286046926.3,N,0.0,0.0
1478260715.4,286046928.2,N,0.0,0.0
1478260735.2,286046927.5,N,0.0,0.0
1478260755.1,286046927.4,N,0.0,0.0
1478260756.0,286046927.4,N,0.0,0.0
1478260775.8,286046927.1,N,0.0,0.0
1478260795.7,286046924.8,N,0.0,0.0
